This is the latest recevied weather packets stored in our database for station/object N4ZIQ. If no packets are shown the sender has not sent any weather packets the latest 10 day(s).
| Time | Temp. | Humidity | Pressure | Rain* | Wind** | Luminosity | Snow |
|---|---|---|---|---|---|---|---|
| 1778117455 | 23.33° C | 68% | 1016.3 hPa | 0 mm | - | 0 W/m² | - |
| 1778117145 | 23.33° C | 68% | 1016.3 hPa | 0 mm | - | 0 W/m² | - |
| 1778116845 | 23.89° C | 67% | 1016.3 hPa | 0 mm | - | 0 W/m² | - |
| 1778116551 | 23.89° C | 67% | 1016.3 hPa | 0 mm | - | 0 W/m² | - |
| 1778116245 | 23.89° C | 67% | 1016.1 hPa | 0 mm | - | 0 W/m² | - |
| 1778115946 | 23.89° C | 67% | 1016.2 hPa | 0 mm | - | 0 W/m² | - |
| 1778115661 | 23.89° C | 67% | 1016 hPa | 0 mm | - | 0 W/m² | - |
| 1778115346 | 23.89° C | 67% | 1016 hPa | 0 mm | - | 0 W/m² | - |
| 1778115049 | 23.89° C | 67% | 1016 hPa | 0 mm | - | 0 W/m² | - |
| 1778114750 | 23.89° C | 66% | 1016 hPa | 0 mm | - | 0 W/m² | - |
| 1778114448 | 24.44° C | 66% | 1015.9 hPa | 0 mm | - | 0 W/m² | - |
| 1778114145 | 24.44° C | 65% | 1015.8 hPa | 0 mm | - | 0 W/m² | - |
| 1778113852 | 24.44° C | 64% | 1015.7 hPa | 0 mm | - | 0 W/m² | - |
| 1778113548 | 25° C | 63% | 1015.7 hPa | 0 mm | - | 0 W/m² | - |
| 1778113245 | 25° C | 63% | 1015.7 hPa | 0 mm | - | 0 W/m² | - |
| 1778112960 | 25° C | 62% | 1015.7 hPa | 0 mm | - | 0 W/m² | - |
| 1778112645 | 25.56° C | 61% | 1015.7 hPa | 0 mm | - | 0 W/m² | - |
| 1778112344 | 25.56° C | 61% | 1015.8 hPa | 0 mm | - | 0 W/m² | - |
| 1778112051 | 26.11° C | 60% | 1015.8 hPa | 0 mm | - | 0 W/m² | - |
| 1778111745 | 26.11° C | 59% | 1015.7 hPa | 0 mm | - | 9 W/m² | - |
| 1778111445 | 26.67° C | 59% | 1015.7 hPa | 0 mm | - | 11 W/m² | - |
| 1778111150 | 26.67° C | 59% | 1015.7 hPa | 0 mm | - | 14 W/m² | - |
| 1778110844 | 27.22° C | 57% | 1015.7 hPa | 0 mm | - | 16 W/m² | - |
| 1778110545 | 27.22° C | 57% | 1015.7 hPa | 0 mm | - | 21 W/m² | - |
| 1778110255 | 27.78° C | 56% | 1015.6 hPa | 0 mm | - | 25 W/m² | - |
* Rain latest hour (hover to see other rain measurements)
** Current wind speed in m/s (hover to see current wind gust speed)